Location: Tel Aviv
(32.0670°N, 34.7670°E)
Time: 07:40:34
(UTC+02:00)

Transit 2A Rocket - Pass Details

Date: 08 December 2023
Orbit: 590 x 905 km, 66.7° (Epoch: 01 March)

Event Time Altitude Azimuth Distance (km) Brightness Sun altitude
Exits shadow 05:19:41 - 340° (NNW) 2,036 6.9 -14.4°
Reaches altitude 10° 05:19:50 10° 340° (NNW) 1,980 6.8 -14.4°
Maximum altitude 05:24:15 68° 63° (ENE) 696 4.9 -13.5°
Drops below altitude 10° 05:29:00 10° 147° (SSE) 2,123 8.1 -12.5°
Sets 05:31:26 0° 150° (SSE) 3,088 9.0 -12.0°
